#timestamp,LO_Frequency,Hit,StdDev 
1552611615.6,286047003.2,N
1552611635.4,286047003.7,N
1552611655.2,286047011.9,Y
1552611675.1,286047000.2,P
1552611676.0,286047000.2,N
1552611695.8,286047000.0,N
1552611715.7,286047000.1,N
1552611735.5,286047001.0,N
1552611755.3,286047001.0,N
1552611775.2,286047000.9,N
1552611795.9,286047001.0,N
1552611815.7,286046999.5,N
1552611835.6,286046998.4,N
1552611855.4,286046996.9,N
1552611875.2,286046996.7,N
1552611895.1,286046996.5,N
1552611896.0,286046996.5,N
1552611915.8,286046997.4,N
1552611935.7,286046999.1,N
1552611955.5,286046999.3,N
1552611975.3,286046998.4,N
1552611995.2,286047000.8,N
1552612015.0,286046998.7,N
1552612015.9,286046998.7,N
1552612035.8,286046996.7,N
1552612055.6,286046996.9,N
1552612075.4,286046997.9,N
1552612095.3,286046995.6,N
1552612115.1,286046996.0,N
1552612135.8,286046995.2,N
1552612155.7,286046998.0,N
1552612175.5,286046997.6,N
1552612195.3,286046996.7,N
1552612215.2,286046999.5,N
1552612235.0,286046998.3,N
1552612235.9,286046998.3,N
1552612255.8,286046998.2,N
1552612275.6,286046998.9,N
1552612295.4,286046998.4,N
1552612315.3,286047001.2,N
1552612335.1,286046999.4,N
1552612355.8,286046999.5,N
1552612375.7,286046996.8,N
1552612395.5,286046994.9,Y
1552612415.4,286046998.5,P
1552612435.2,286046998.9,P
1552612455.0,286046998.4,P
1552612455.9,286046998.4,Y
1552612475.8,286047002.6,P
1552612495.6,286047001.5,N
1552612515.5,286047001.9,N
1552612535.3,286047000.2,N
1552612555.1,286047001.0,N
1552612575.9,286046998.2,N
1552612595.7,286046998.1,N
1552612615.5,286047011.9,Y
1552612635.4,286046998.9,P
1552612655.2,286046997.8,P
1552612675.1,286046995.1,P
1552612676.0,286046995.1,N
1552612695.8,286046996.0,N
1552612715.6,286046996.4,N
1552612735.5,286046995.8,N
1552612755.3,286046995.8,N
1552612775.1,286046995.6,N
1552612795.9,286046997.8,N
1552612815.7,286046997.7,N
1552612835.6,286046996.6,N
1552612855.4,286046997.9,N
1552612875.2,286046996.7,N
1552612895.1,286046997.1,N
1552612896.0,286046997.1,N
1552612915.8,286046997.4,N
1552612935.7,286046997.4,N
1552612955.5,286046997.1,N
1552612975.3,286046997.1,N
1552612995.2,286046995.2,Y
1552613015.0,286046997.0,P
1552613015.9,286046997.0,P
1552613035.8,286046998.7,P
1552613055.6,286046999.1,N
1552613075.4,286046999.1,N
1552613095.3,286046999.6,N
1552613115.1,286046999.1,N
1552613135.8,286046998.9,N
1552613155.7,286046998.6,N
1552613175.5,286047000.6,N
1552613195.3,286047001.2,N
1552613215.2,286047000.5,N
1552613235.0,286047000.8,N
1552613235.9,286047000.8,N
1552613255.8,286046999.2,N
1552613275.6,286046998.5,N
1552613295.4,286046998.8,N
1552613315.3,286047000.5,N
1552613335.1,286046998.5,N
1552613355.9,286046998.6,N
1552613375.7,286046998.4,N
1552613395.5,286046998.9,N
1552613415.4,286046999.1,N
1552613435.2,286046999.6,N
1552613455.0,286046997.0,N
1552613456.0,286046997.0,N
1552613475.8,286046997.1,N
1552613495.6,286046996.5,N
1552613515.5,286046997.5,N
1552613535.3,286046997.1,N
1552613555.1,286046996.9,N
1552613575.9,286046998.9,N
1552613595.7,286047001.1,N
1552613615.5,286046999.2,N
1552613635.4,286046997.4,N
1552613655.2,286046997.7,N
1552613675.1,286046997.6,N
1552613676.0,286046997.6,N
1552613695.8,286046999.4,N
1552613715.6,286046997.1,N
1552613735.5,286046999.6,N
1552613755.3,286046999.5,N
1552613775.2,286046997.8,N
1552613795.9,286046997.8,N
1552613815.7,286046999.6,N
1552613835.6,286046998.7,N
1552613855.4,286046998.5,N
1552613875.2,286046999.1,N
1552613895.1,286046996.9,N
1552613896.0,286046996.9,N
1552613915.8,286046999.2,N
1552613935.7,286046999.3,N
1552613955.5,286046996.9,N
1552613975.3,286046997.5,N
1552613995.2,286046995.0,Y
1552614015.0,286046996.9,P
1552614015.9,286046996.9,P
1552614035.8,286046999.2,N
1552614055.6,286046996.8,Y
1552614075.4,286047002.8,P
1552614095.3,286047001.6,N
1552614115.1,286047004.2,N
1552614135.8,286047001.3,N
1552614155.7,286047002.1,N
1552614175.5,286047003.8,N
1552614195.3,286047005.6,N
1552614215.2,286047004.4,N
1552614235.0,286047002.4,N
1552614235.9,286047002.4,N
1552614255.8,286047001.6,N
1552614275.6,286046999.9,N
1552614295.4,286047002.7,N
1552614315.3,286047002.1,N
1552614335.1,286047002.6,N
1552614355.9,286047002.8,N
1552614375.7,286047002.6,N
1552614395.5,286047000.5,N
1552614415.4,286047000.9,N
1552614435.2,286047000.2,N
1552614455.0,286047000.4,N
1552614455.9,286047000.4,N
1552614475.8,286047001.2,N
1552614495.6,286047000.9,N
1552614515.5,286047002.5,N
1552614535.3,286047002.6,N
1552614555.1,286047000.2,N
1552614575.9,286047000.4,N
1552614595.7,286047004.0,N
1552614615.5,286047001.5,N
1552614635.4,286047003.5,N
1552614655.2,286047003.0,N
1552614675.0,286047003.6,N
1552614676.0,286047003.6,N
1552614695.8,286047005.4,Y
1552614715.6,286047001.7,P
1552614735.5,286047004.4,P
1552614755.3,286047002.6,N
1552614775.1,286047002.5,N
1552614795.9,286047001.4,N
1552614815.7,286047004.2,Y
1552614835.6,286047002.7,P
1552614855.4,286047002.6,P
1552614875.2,286046999.8,N
1552614895.1,286047000.9,N
1552614896.0,286047000.9,N
1552614915.8,286047000.6,N
1552614935.6,286047000.4,N
1552614955.5,286047000.9,N
1552614975.3,286047001.0,N
1552614995.2,286046998.1,N
1552615015.9,286047001.2,N
1552615035.7,286047000.2,N
1552615055.6,286047000.5,N
1552615075.4,286046999.3,N
1552615095.2,286046998.4,N
1552615115.1,286046998.3,N
1552615116.0,286046998.3,N
1552615135.8,286047001.2,N
1552615155.6,286047000.8,N
1552615175.5,286047000.9,N
1552615195.3,286046998.3,N
